Simultaneous Nadir Overpasses (SNOs) Predictions

Prediction of SNOs between GOES-17 and NOAA-19 Satellite Orbit:

Table of predicted SNOs for the next 14.0 days since TLE Epoch: 9/24/2022
Index Date Time (GOES-17) GOES-17 Lat,Lon NOAA-19 Lat,Lon Distance(km) Time Diff (sec)
1 09/25/2022 05:16:07 0.04,-137.33 -0.30,-138.91 180.39 80
2 09/26/2022 05:06:53 0.04,-137.33 0.32,-136.01 150.25 80
3 09/27/2022 04:55:01 0.04,-137.33 1.01,-133.11 480.65 80
4 09/28/2022 17:24:45 -0.04,-137.32 0.77,-140.88 405.56 80
5 09/29/2022 17:12:52 -0.04,-137.32 0.14,-137.97 75.71 80
6 09/30/2022 17:03:39 -0.04,-137.30 -0.55,-135.08 253.97 80
7 10/03/2022 05:21:28 0.04,-137.26 -0.59,-139.93 304.95 80
8 10/04/2022 05:12:15 0.04,-137.24 0.10,-137.04 23.93 80
9 10/05/2022 05:00:22 0.03,-137.23 0.73,-134.13 352.66 80
10 10/07/2022 17:18:12 -0.03,-137.19 0.40,-138.99 206.54 80
